Showing default

CENTISPACE-1 S16, 62585

Orbit data source: Space-Track

CENTISPACE-1 S16, 62585 is a payload satellite owned by Centispace (CN) in LEO that was launched on Mon, 13 Jan 2025 UTC via a JIELONG-3 launch vehicle from the Yellow Sea Launch Area, China (YSLA). Payloads include a variety of satellites, spacecraft, and rockets equipped with specific instruments for various scientific and technological missions. These include communications satellites like Starlink; space stations such as the ISS; scientific satellites like the Hubble; Earth observation satellites from companies like Planet Labs, Umbra, and HawkEye 360; GPS; miniature CubeSats for education and research; and military/defense satellites.

Loading next visibility...
CENTISPACE-1 S16 details
Identifier
62585, 2025-007L
Orbit
LEO
Last TLE update9 hours ago
Origin
Flag of CNCentispace (CN / PRC)
ManufacturerHITSAT
MissionOperational spacecraft
Bus & MotorWK01H, Unknown motor
Mass160 kg wet, 160 kg dry
Launch date (UTC)
2025-01-13 (1 month ago)
Launch vehicle
JIELONG-3
Launch site
Yellow Sea Launch Area, China (YSLA)
Object type
Payload
Rocket body
Debris
Shape & HBRUnknown
Radar Cross SectionMedium (>0.1 m² and <1 m²)

Expand to show TLE details & history

TLE from 9 hours ago
0 CENTISPACE-1 S16
1 62585U 25007L   25047.11715118  .00005463  00000-0  82824-3 0  9998
2 62585  54.9837 349.4931 0014341  15.4391 344.7043 14.75354625  5016
Epoch: 2025-02-16T02:48Z
Definitive object data (Epoch: 2025-02-16T02:48:41.861Z)
Latitude-0.00006°
Longitude160.96382°
Altitude635.381 km
Speed7.547 km/s
True Right ascension23h 17m 58s
True Declination0° 00' 00"
Sunlit
Object was in daylight at TLE epoch
Visualization TLE readout
Latitude0.89437°
Longitude-21.1798°
Altitude654.572 km
Speed7.526 km/s
Apparent Right ascension08h 13m 26s
Apparent Declination-36° 03' 31"
Sunlit
Object is in full shadow
Visualization observer readout
Local Sidereal Time14:31:19
Azimuth242.98° WSW
Elevation-25.216°
Doppler factor1
Orbital elements
Apogee altitude654.062 km
Perigee altitude633.921 km
Semi-major axis7,022.129 km
Eccentricity0.0014341
Inclination54.9837°
RAAN349.4931°
Arg. of periapsis15.4391°
True anomaly344.66087°
Mean anomaly344.7043°
Eccentric anomaly344.68259°
Mean motion3.68842 °/min
BSTAR0.00082824
Orbital period97.6 mins
Loading maneuver chart data...
Loading historical data...
Loading historical data...
Loading historical data...
Loading historical data...
Loading historical data...
Loading historical data...
Loading historical data...

CENTISPACE-1 S16 Visibility forecast

Observer location: undefined°, undefined

Span
Click to sort rows by Start time (UTC) header in descending order
Start Az.
Max El. time (UTC)
Max El. Az.
Max El.
End time (UTC)
End Az.
7 mins2025-02-16 22:29:54.716Z220.647° SW2025-02-16 22:32:54.716Z173.453° S44.423°2025-02-16 22:36:54.716Z49.301° ENE
5 mins2025-02-17 00:12:54.716Z297.075° NW2025-02-17 00:14:54.716Z331.541° NNW21.301°2025-02-17 00:17:54.716Z19.891° NNE
4 mins2025-02-17 03:39:54.716Z359.407° N2025-02-17 03:40:54.716Z15.195° NNE16.885°2025-02-17 03:43:54.716Z58.401° ENE
8 mins2025-02-17 05:19:54.716Z321.853° NNW2025-02-17 05:23:54.716Z67.207° ENE40.127°2025-02-17 05:27:54.716Z119.994° SE
5 mins2025-02-17 07:02:54.716Z264.408° W2025-02-17 07:04:54.716Z230.275° WSW19.47°2025-02-17 07:07:54.716Z189.024° SSW
|